[[{"header":{"parameterUnit":"m.s-1","parameterCategory":1,"la1":30.2991,"la2":30.254,"lo1":-89.0895,"lo2":-89.0444,"dy":0.0017,"dx":0.0017,"nx":28,"ny":28,"refTime":"2025-11-18T09:00:00:Z","depth":0,"parameterNumber":2,"parameterNumberName":"U-component_of_WINDS"},"data":[0,0,0,0,0,0,0,0,0,0,0,0,0,0,0,0,0,0,0,0,0,0,0,0,0,0,0,0,0,0,0,0,0,0,0,0,0,0,0,0,0,0,0,0,0,0,0,0,0,0,0,0,0,0,0,0,0,0,0.3625,0.3627,0,0.3799,0.3801,0.3803,0.389,0.389,0.3891,0.3891,0.4067,0.4072,0.4077,0,0,0,0,0,0,0,0,0,0,0,0,0,0.337,0.3374,0.3625,0.3627,0.3629,0.3798,0.3801,0.3803,0.389,0.389,0.3891,0.3891,0.4066,0.4071,0.4077,0,0,0,0,0,0,0,0,0,0,0,0,0,0.3506,0.3376,0.3625,0.3693,0.3701,0.3798,0.3801,0.3804,0.389,0.389,0.3891,0.3891,0.4064,0.4071,0.4078,0.4119,0,0,0.4099,0.4102,0,0,0,0,0,0,0,0,0.3498,0.3515,0.3681,0.3689,0.3698,0.3823,0.3776,0.3909,0.389,0.3818,0.3891,0.3891,0.3986,0.3999,0.4032,0.4127,0.4135,0.41,0.4104,0.4107,0.4109,0,0,0,0,0,0,0,0.3488,0.3508,0.3694,0.3683,0.3694,0.3716,0.3735,0.3801,0.39,0.3825,0.3832,0.3851,0.3991,0.4025,0.4037,0.4138,0.41,0.4106,0.411,0.4113,0.4278,0.4278,0,0,0,0,0,0,0.3468,0.35,0.3688,0.3699,0.3596,0.372,0.3742,0.3783,0.3899,0.3917,0.3851,0.3854,0.4013,0.4028,0.4043,0.4101,0.4107,0.4113,0.4117,0.4278,0.4278,0.4278,0,0,0,0,0,0,0.3462,0.3484,0.3681,0.3601,0.3628,0.3724,0.377,0.3786,0.382,0.3919,0.3937,0.3868,0.4013,0.4033,0.41,0.4108,0.4117,0.4123,0.4278,0.4278,0.4278,0.4215,0,0,0,0,0,0,0.3454,0.3481,0.3498,0.3601,0.3632,0.3735,0.377,0.3789,0.3832,0.3839,0.3939,0.3956,0.4015,0.4089,0.4107,0.4118,0.4128,0.4277,0.4278,0.4278,0.4216,0.4213,0.4209,0,0,0,0,0,0.3445,0.3472,0.3498,0.352,0.3654,0.3735,0.3753,0.382,0.3832,0.385,0.3914,0.3953,0.4104,0.4095,0.4116,0.4129,0.4277,0.4278,0.4278,0.4218,0.4213,0.4209,0,0,0,0,0,0,0.3366,0.3487,0.3517,0.3578,0.3646,0.375,0.3774,0.3813,0.3878,0.3882,0.3963,0.3985,0.4044,0.4093,0.4081,0.4176,0.4195,0.4199,0.4142,0.4138,0.4135,0.4122,0.4134,0,0,0,0,0,0.3356,0.3412,0.3514,0.3558,0.3591,0.3676,0.3714,0.376,0.3833,0.3862,0.3931,0.4,0.4064,0.4104,0.4167,0.4224,0.4248,0.4243,0.424,0.4236,0.4239,0.4275,0.4274,0.428,0.428,0.428,0,0,0.3336,0.3408,0.3438,0.3544,0.3602,0.3658,0.37,0.3757,0.3799,0.3871,0.3939,0.3991,0.4074,0.4137,0.4167,0.4179,0.4243,0.4237,0.4233,0.4239,0.4275,0.4275,0.4274,0.428,0.428,0.428,0,0,0.3327,0.3387,0.3432,0.3489,0.3577,0.3634,0.3644,0.3743,0.3781,0.385,0.3906,0.3958,0.4065,0.4122,0.4165,0.4181,0.422,0.4199,0.4181,0.4214,0.4214,0.4214,0.4221,0.4222,0.4202,0.4202,0.4202,0,0.329,0.3377,0.3449,0.3504,0.355,0.3618,0.3664,0.3716,0.382,0.385,0.3862,0.3999,0.406,0.4137,0.4141,0.4173,0.4189,0.4188,0.4208,0.4209,0.421,0.4217,0.422,0.4199,0.4199,0.4199,0.42,0,0.3329,0.3388,0.3413,0.3513,0.3561,0.3611,0.3691,0.3732,0.3774,0.383,0.3901,0.3976,0.4057,0.4079,0.412,0.4163,0.4168,0.4193,0.4213,0.4205,0.4214,0.4217,0.4194,0.4195,0.4196,0.4197,0,0,0.3274,0.3414,0.3422,0.3469,0.3572,0.3619,0.3672,0.3752,0.3786,0.3855,0.3903,0.3993,0.4018,0.4067,0.4116,0.4145,0.4154,0.4167,0.417,0.4163,0.4207,0.4188,0.419,0.418,0.4181,0.4182,0.42,0,0.3281,0.338,0.3448,0.3521,0.3578,0.3644,0.3691,0.3759,0.3813,0.3869,0.3929,0.3992,0.4019,0.405,0.4081,0.4146,0.4164,0.4145,0.4226,0.4228,0.4204,0.4194,0.4174,0.4187,0.4204,0.4205,0.4205,0,0.3301,0.337,0.3449,0.3547,0.3574,0.3614,0.3694,0.3747,0.3826,0.3863,0.3918,0.3969,0.4029,0.4044,0.4129,0.4115,0.4152,0.4189,0.4191,0.4202,0.4216,0.4205,0.4193,0.4195,0.4211,0.421,0.421,0,0.3255,0.3367,0.343,0.3467,0.3583,0.3611,0.366,0.3739,0.3784,0.3853,0.3883,0.3958,0.4,0.4057,0.4127,0.4131,0.4205,0.4225,0.4238,0.4237,0.4251,0.4249,0.4246,0.4274,0.4273,0.4273,0.4273,0,0.3256,0.3302,0.3411,0.3449,0.3503,0.3581,0.3632,0.3687,0.3757,0.3808,0.387,0.3916,0.4005,0.4063,0.4117,0.418,0.4198,0.4231,0.4245,0.4225,0.4221,0.4251,0.4252,0.4274,0.4274,0.4274,0.4274,0,0.3213,0.3288,0.336,0.3465,0.3492,0.3527,0.3617,0.3657,0.3715,0.3778,0.3798,0.3888,0.3959,0.4035,0.4131,0.4168,0.4229,0.4248,0.4202,0.421,0.4219,0.4218,0.4235,0.4242,0.4264,0.4263,0.4263,0,0.3208,0.3246,0.3354,0.3393,0.3441,0.3503,0.3549,0.3627,0.3672,0.3766,0.3795,0.3871,0.3936,0.4046,0.4121,0.4196,0.4218,0.4219,0.4229,0.4209,0.4219,0.4216,0.4221,0.4215,0.4215,0.4214,0.4214,0,0.3193,0.3229,0.3293,0.337,0.3424,0.3489,0.3556,0.3584,0.3675,0.3723,0.3797,0.3847,0.3947,0.4021,0.4105,0.4157,0.4201,0.421,0.4217,0.4198,0.417,0.4187,0.4193,0.4209,0.421,0.421,0.421,0.4211,0.317,0.3207,0.329,0.336,0.3419,0.3481,0.3524,0.3588,0.3651,0.3738,0.3781,0.3854,0.3935,0.4052,0.4103,0.4162,0.4175,0.4185,0.4188,0.4189,0.4185,0.416,0.4177,0.4178,0.4178,0.4178,0.4178,0,0.3159,0.3216,0.3279,0.3372,0.3427,0.3465,0.3541,0.3585,0.365,0.3721,0.3784,0.387,0.3943,0.4024,0.4103,0.4135,0.4157,0.4153,0.4152,0.4163,0.4168,0.4155,0.4134,0.4134,0.4134,0.4134,0.4134,0.4134,0.3159,0.3224,0.327,0.3365,0.3423,0.3496,0.3537,0.3594,0.3652,0.3745,0.3807,0.3859,0.3935,0.402,0.409,0.4112,0.4138,0.4128,0.4156,0.4159,0.4163,0.4166,0.4154,0.4133,0.4133,0.4147,0.4147,0.4147]},{"header":{"parameterUnit":"m.s-1","parameterCategory":1,"la1":30.2991,"la2":30.254,"lo1":-89.0895,"lo2":-89.0444,"dy":0.0017,"dx":0.0017,"nx":28,"ny":28,"refTime":"2025-11-18T09:00:00:Z","depth":0,"parameterNumber":3,"parameterNumberName":"V-component_of_WINDS"},"data":[0,0,0,0,0,0,0,0,0,0,0,0,0,0,0,0,0,0,0,0,0,0,0,0,0,0,0,0,0,0,0,0,0,0,0,0,0,0,0,0,0,0,0,0,0,0,0,0,0,0,0,0,0,0,0,0,0,0,1.8922,1.8922,0,1.8903,1.8902,1.8902,1.8881,1.8881,1.8881,1.888,1.8857,1.8857,1.8857,0,0,0,0,0,0,0,0,0,0,0,0,0,1.894,1.8939,1.8922,1.8922,1.8922,1.8903,1.8902,1.8902,1.8881,1.8881,1.888,1.888,1.8858,1.8857,1.8857,0,0,0,0,0,0,0,0,0,0,0,0,0,1.8927,1.8939,1.8922,1.8909,1.8908,1.8903,1.8902,1.8902,1.8881,1.8881,1.888,1.888,1.8858,1.8857,1.8857,1.8862,0,0,1.8855,1.8855,0,0,0,0,0,0,0,0,1.8928,1.8927,1.8911,1.891,1.8908,1.8894,1.89,1.8889,1.8881,1.8891,1.888,1.888,1.887,1.8868,1.8865,1.8861,1.886,1.8855,1.8855,1.8855,1.8854,0,0,0,0,0,0,0,1.8929,1.8927,1.8914,1.8911,1.8909,1.8904,1.8901,1.8898,1.8883,1.889,1.8889,1.8887,1.8869,1.8866,1.8865,1.886,1.8855,1.8855,1.8854,1.8854,1.8861,1.8862,0,0,0,0,0,0,1.8932,1.8928,1.8915,1.8914,1.8917,1.8904,1.8901,1.8899,1.8883,1.888,1.8887,1.8886,1.8867,1.8865,1.8864,1.8871,1.8855,1.8854,1.8854,1.8861,1.8861,1.8862,0,0,0,0,0,0,1.8932,1.8931,1.8916,1.8921,1.8918,1.8904,1.8902,1.8899,1.8896,1.8881,1.8878,1.8887,1.8867,1.8865,1.8863,1.887,1.8854,1.8853,1.886,1.8861,1.8861,1.8884,0,0,0,0,0,0,1.8933,1.8931,1.8934,1.8921,1.8918,1.8916,1.8902,1.8899,1.8896,1.8894,1.888,1.8877,1.8866,1.8864,1.8863,1.8869,1.8853,1.8859,1.886,1.8861,1.8883,1.8885,1.8888,0,0,0,0,0,1.8934,1.894,1.8934,1.8932,1.8921,1.8917,1.8915,1.8903,1.8896,1.8898,1.8889,1.8878,1.8869,1.8864,1.8863,1.8868,1.8859,1.886,1.8861,1.8881,1.8885,1.8888,0,0,0,0,0,0,1.8952,1.8938,1.8931,1.8933,1.8927,1.8913,1.8915,1.8907,1.8901,1.8899,1.8884,1.8881,1.8882,1.8875,1.887,1.8874,1.8863,1.8863,1.8879,1.8882,1.8884,1.8886,1.8853,0,0,0,0,0,1.8957,1.8956,1.8943,1.8946,1.8943,1.893,1.8928,1.8919,1.8911,1.8908,1.8898,1.889,1.8886,1.8883,1.8878,1.8881,1.8879,1.8884,1.8887,1.8889,1.889,1.8893,1.8896,1.8865,1.8865,1.8865,0,0,1.8966,1.8958,1.8958,1.8949,1.8943,1.8942,1.8928,1.8926,1.8925,1.8907,1.8906,1.8899,1.8889,1.8891,1.8891,1.8885,1.8898,1.8891,1.8892,1.8892,1.8894,1.8897,1.89,1.8866,1.8866,1.8866,0,0,1.8982,1.8975,1.8978,1.8973,1.8964,1.8956,1.8956,1.8945,1.894,1.8939,1.8926,1.8924,1.8916,1.891,1.8906,1.8922,1.8912,1.892,1.8934,1.8937,1.8939,1.8941,1.8948,1.895,1.8921,1.8921,1.8921,0,1.8994,1.8992,1.898,1.8981,1.8978,1.8963,1.8966,1.896,1.895,1.8948,1.8942,1.8934,1.8925,1.8926,1.8931,1.8927,1.8928,1.8922,1.894,1.8942,1.8943,1.895,1.8952,1.8922,1.8922,1.8922,1.8922,0,1.9008,1.9007,1.901,1.9003,1.9,1.9001,1.899,1.8988,1.898,1.8972,1.8972,1.8962,1.8956,1.8955,1.8946,1.8955,1.8952,1.8943,1.8931,1.8948,1.8954,1.8956,1.8924,1.8924,1.8923,1.8923,0,0,1.9035,1.9022,1.9024,1.9021,1.901,1.9009,1.901,1.9005,1.9005,1.8998,1.8999,1.8994,1.8986,1.8981,1.8972,1.8974,1.8989,1.8965,1.8965,1.8971,1.9,1.9007,1.901,1.8982,1.8983,1.8983,1.9001,0,1.905,1.9052,1.9042,1.9047,1.9046,1.9033,1.9034,1.9027,1.902,1.9019,1.901,1.9008,1.8997,1.8994,1.8996,1.8987,1.8995,1.8985,1.8983,1.8983,1.8987,1.9013,1.9021,1.9038,1.9003,1.9003,1.9003,0,1.9068,1.9065,1.907,1.9061,1.906,1.9062,1.9057,1.9055,1.9048,1.9043,1.9039,1.9029,1.9029,1.9018,1.9019,1.9013,1.9011,1.9007,1.9007,1.9007,1.8995,1.9015,1.9043,1.9046,1.9007,1.9006,1.9006,0,1.9089,1.9085,1.9088,1.9086,1.9075,1.9077,1.9072,1.9065,1.9063,1.9059,1.9057,1.9053,1.905,1.9047,1.9036,1.9028,1.9038,1.9026,1.9034,1.9035,1.9037,1.9037,1.9067,1.9034,1.9034,1.9034,1.9034,0,1.9108,1.9112,1.9098,1.91,1.9104,1.9092,1.9096,1.909,1.9084,1.9085,1.9072,1.9072,1.9057,1.9056,1.9047,1.905,1.9048,1.9044,1.9042,1.9046,1.9047,1.9046,1.9045,1.9035,1.9035,1.9035,1.9035,0,1.9132,1.9123,1.9125,1.9116,1.9113,1.9117,1.9109,1.911,1.9103,1.9104,1.9103,1.9091,1.9089,1.9078,1.9073,1.9067,1.9073,1.9068,1.9076,1.9075,1.9085,1.9085,1.9115,1.9119,1.9083,1.9084,1.9084,0,1.9145,1.9148,1.9139,1.9139,1.9136,1.9136,1.9134,1.9123,1.9122,1.9115,1.9117,1.9115,1.9112,1.911,1.9101,1.9097,1.9093,1.9104,1.9092,1.9096,1.9094,1.9095,1.9096,1.9106,1.9107,1.9107,1.9107,0,1.9169,1.9165,1.9164,1.9162,1.9161,1.9158,1.9155,1.9155,1.9143,1.9142,1.9141,1.9139,1.9135,1.9133,1.9129,1.9123,1.9114,1.9111,1.9113,1.9118,1.9123,1.9122,1.9085,1.9111,1.911,1.911,1.911,1.911,1.9189,1.9192,1.9187,1.9186,1.9183,1.918,1.9182,1.9175,1.9174,1.9171,1.9164,1.9164,1.9158,1.9151,1.9147,1.9147,1.9141,1.9144,1.9144,1.9146,1.9148,1.9123,1.9146,1.9146,1.9146,1.9146,1.9145,0,1.9214,1.921,1.921,1.9207,1.9207,1.9198,1.9194,1.9195,1.9196,1.9191,1.919,1.9189,1.9187,1.9179,1.9176,1.9178,1.9173,1.9177,1.9178,1.9177,1.9153,1.9152,1.9181,1.9181,1.9181,1.9181,1.9181,1.9181,1.9227,1.9232,1.9227,1.923,1.9226,1.9227,1.9226,1.9224,1.9221,1.9221,1.922,1.9215,1.9209,1.9206,1.9204,1.9202,1.9202,1.9208,1.9204,1.9182,1.9178,1.9175,1.9174,1.9208,1.9208,1.9228,1.9228,1.9228]}]]